Targu Mures, Romania

8:37 PM EEST on July 19, 2018 (GMT +0300)
Vidrasau

Weather History for LRTM - June, 2018

Change the Weather History Date:

Thursday, June 14, 2018

  Actual Average Record
Temperature  
Mean Temperature 68 °F -  
Max Temperature 76 °F 76 °F 95 °F (2000)
Min Temperature 61 °F 55 °F 48 °F (2014)
Cooling Degree Days 4    
Growing Degree Days 18 (Base 50)    
Moisture  
Dew Point 62 °F    
Average Humidity 83    
Maximum Humidity 100    
Minimum Humidity 45    
Precipitation  
Precipitation 0.12 in - - ()
Sea Level Pressure  
Sea Level Pressure 29.72 in    
Wind  
Wind Speed 6 mph ()    
Max Wind Speed 16 mph    
Max Gust Speed -    
Visibility 6.8 miles    
Events Rain , Thunderstorm    
Averages and records for this station are not official NWS values.
T = Trace of Precipitation, MM = Missing Value Source: Averaged Metar Reports

Daily Weather History Graph

Daily Weather History Graph

Search for Another Location

Airport or City:

Astronomy

Jun. 14, 2018 Rise Set
Actual Time 5:28 AM EEST 9:16 PM EEST
Civil Twilight 4:49 AM EEST 9:55 PM EEST
Nautical Twilight 3:56 AM EEST 10:48 PM EEST
Astronomical Twilight 2:40 AM EEST 12:04 AM EEST
Moon 6:11 AM EEST (6/14) 9:53 PM EEST (6/14)
Length of Visible Light 17h 06m
Length of Day
15h 47m
New Moon, 0% of the Moon is Illuminated
Jun 14
New Moon
Jun 20
First Quarter
Jun 28
Full
Jul 6
Last Quarter
Jul 13
New

Hourly Weather History & Observations

Time (EEST) Temp. Dew Point Humidity Pressure Visibility Wind Dir Wind Speed Gust Speed Precip Events Conditions
12:00 AM 68 °F 63 °F 78% 29.76 in 6 mi SW 15.7 mph - -   Overcast
12:00 AM 62.6 °F 60.8 °F 94% 29.74 in 6.2 mi WSW 11.5 mph - N/A Rain , Thunderstorm Light Rain Showers
12:30 AM 62.6 °F 62.6 °F 100% 29.74 in 6.2 mi WSW 8.1 mph - N/A Rain Light Rain Showers
1:00 AM 62.6 °F 62.6 °F 100% 29.71 in 6.2 mi North 4.6 mph - N/A   Mostly Cloudy
1:30 AM 62.6 °F 62.6 °F 100% 29.71 in 6.2 mi East 6.9 mph - N/A   Mostly Cloudy
2:00 AM 62 °F 62 °F 99% 29.73 in 6 mi ENE 6.7 mph - - Thunderstorm Light Thunderstorm
2:00 AM 62.6 °F 62.6 °F 100% 29.71 in 5.0 mi East 11.5 mph - N/A   Overcast
2:30 AM 62.6 °F 60.8 °F 94% 29.71 in 6.2 mi East 12.7 mph - N/A   Mostly Cloudy
3:00 AM 62 °F 61 °F 94% 29.73 in 6 mi East 6.7 mph - -   Partly Cloudy
3:00 AM 62.6 °F 60.8 °F 94% 29.71 in 6.2 mi East 10.4 mph - N/A   Mostly Cloudy
3:30 AM 62.6 °F 60.8 °F 94% 29.74 in 6.2 mi ESE 8.1 mph - N/A Rain Rain
4:00 AM 62 °F 60 °F 92% 29.75 in 6 mi South 2.2 mph - - Rain Light Rain Showers
4:00 AM 62.6 °F 60.8 °F 94% 29.71 in 5.6 mi East 8.1 mph - N/A Rain Heavy Rain
4:30 AM 62.6 °F 60.8 °F 94% 29.68 in 6.2 mi NE 10.4 mph - N/A Rain Rain
5:00 AM 61 °F 61 °F 100% 29.72 in 6 mi NE 6.7 mph - - Rain Light Rain Showers
5:00 AM 62.6 °F 60.8 °F 94% 29.68 in 5.6 mi NE 8.1 mph - N/A Rain Light Rain
5:30 AM 62.6 °F 60.8 °F 94% 29.68 in 6.2 mi NNE 3.5 mph - N/A   Mostly Cloudy
6:00 AM 61 °F 61 °F 100% 29.70 in 6 mi NE 4.5 mph - - Rain Light Rain Showers
6:00 AM 62.6 °F 60.8 °F 94% 29.71 in 6.2 mi Variable 1.2 mph - N/A   Mostly Cloudy
6:30 AM 62.6 °F 60.8 °F 94% 29.71 in 5.0 mi WSW 4.6 mph - N/A   Mostly Cloudy
7:00 AM 62.6 °F 62.6 °F 100% 29.71 in 3.1 mi WSW 2.3 mph - N/A   Mostly Cloudy
7:30 AM 62.6 °F 62.6 °F 100% 29.71 in 5.6 mi SW 3.5 mph - N/A   Mostly Cloudy
8:00 AM 63 °F 63 °F 99% 29.72 in 12 mi Calm Calm - -   Scattered Clouds
8:00 AM 64.4 °F 62.6 °F 94% 29.71 in 5.0 mi SW 5.8 mph - N/A   Scattered Clouds
8:30 AM 64.4 °F 62.6 °F 94% 29.71 in 6.2 mi SW 5.8 mph - N/A   Scattered Clouds
9:00 AM 64.4 °F 60.8 °F 88% 29.74 in 6.2 mi SW 2.3 mph - N/A   Mostly Cloudy
9:30 AM 66.2 °F 62.6 °F 88% 29.71 in 6.2 mi WSW 2.3 mph - N/A Rain Light Rain Showers
10:00 AM 66.2 °F 62.6 °F 88% 29.74 in 6.2 mi Calm Calm - N/A Rain Light Rain Showers
10:30 AM 66.2 °F 62.6 °F 88% 29.74 in 6.2 mi Variable 2.3 mph - N/A   Partly Cloudy
11:00 AM 66 °F 63 °F 85% 29.74 in 12 mi West 2.2 mph - - Rain Light Rain Showers
11:00 AM 66.2 °F 62.6 °F 88% 29.74 in 6.2 mi South 3.5 mph - N/A   Mostly Cloudy
11:30 AM - - N/A% 29.74 in 6.2 mi South 3.5 mph - N/A   Mostly Cloudy
12:00 PM 68.0 °F 60.8 °F 78% 29.74 in 6.2 mi Variable 2.3 mph - N/A   Scattered Clouds
12:30 PM 69.8 °F 60.8 °F 73% 29.74 in 6.2 mi SW 3.5 mph - N/A   Scattered Clouds
1:00 PM 70 °F 62 °F 70% 29.74 in 12 mi WSW 4.5 mph - -   Mostly Cloudy
1:30 PM 69.8 °F 60.8 °F 73% 29.74 in 6.2 mi Variable 2.3 mph - N/A   Scattered Clouds
2:00 PM 69.8 °F 60.8 °F 73% 29.74 in 6.2 mi South 3.5 mph - N/A   Scattered Clouds
2:30 PM 69.8 °F 62.6 °F 78% 29.77 in 6.2 mi South 4.6 mph - N/A   Partly Cloudy
3:00 PM 69.8 °F 60.8 °F 73% 29.74 in 6.2 mi SSE 6.9 mph - N/A   Partly Cloudy
3:30 PM 69.8 °F 62.6 °F 78% 29.74 in 6.2 mi ESE 5.8 mph - N/A Rain Light Rain Showers
4:00 PM 67 °F 64 °F 86% 29.73 in 12 mi South 2.2 mph - - Rain Light Rain Showers
4:00 PM 71.6 °F 64.4 °F 78% 29.71 in 6.2 mi East 3.5 mph - N/A Rain Light Rain Showers
4:30 PM 73.4 °F 62.6 °F 69% 29.71 in 6.2 mi Variable 2.3 mph - N/A   Partly Cloudy
5:00 PM 73.4 °F 59.0 °F 61% 29.71 in 6.2 mi South 3.5 mph - N/A   Scattered Clouds
5:30 PM 73.4 °F 60.8 °F 65% 29.71 in 6.2 mi Variable 2.3 mph - N/A   Scattered Clouds
6:00 PM 75 °F 58 °F 45% 29.70 in 12 mi Calm Calm - -   Partly Cloudy
6:00 PM 75.2 °F 59.0 °F 57% 29.71 in 6.2 mi Variable 1.2 mph - N/A   Scattered Clouds
6:30 PM 77.0 °F 59.0 °F 54% 29.71 in 6.2 mi West 3.5 mph - N/A   Partly Cloudy
7:00 PM 76 °F 60 °F 47% 29.70 in 12 mi Calm Calm - -   Partly Cloudy
7:00 PM 77.0 °F 59.0 °F 54% 29.71 in 6.2 mi Variable 2.3 mph - N/A   Partly Cloudy
7:30 PM 75.2 °F 59.0 °F 57% 29.71 in 6.2 mi Variable 2.3 mph - N/A   Partly Cloudy
8:00 PM 76 °F 61 °F 50% 29.70 in 12 mi Calm Calm - -   Scattered Clouds
8:00 PM 73.4 °F 59.0 °F 61% 29.71 in 6.2 mi South 2.3 mph - N/A   Partly Cloudy
8:30 PM 71.6 °F 62.6 °F 73% 29.74 in 6.2 mi West 3.5 mph - N/A   Mostly Cloudy
9:00 PM 70 °F 63 °F 72% 29.73 in 12 mi Calm Calm - -   Partly Cloudy
9:00 PM 69.8 °F 64.4 °F 83% 29.74 in 6.2 mi WNW 5.8 mph - N/A   Mostly Cloudy
9:30 PM 68.0 °F 62.6 °F 83% 29.74 in 6.2 mi Variable 2.3 mph - N/A   Partly Cloudy
10:00 PM 68.0 °F 62.6 °F 83% 29.74 in 6.2 mi Variable 2.3 mph - N/A   Scattered Clouds
10:30 PM 68.0 °F 60.8 °F 78% 29.74 in 6.2 mi Variable 1.2 mph - N/A   Mostly Cloudy
11:00 PM 66 °F 63 °F 86% 29.76 in 6 mi Calm Calm - -   Scattered Clouds
11:00 PM 66.2 °F 62.6 °F 88% 29.77 in 6.2 mi Variable 2.3 mph - N/A   Unknown
11:30 PM 64.4 °F 62.6 °F 94% 29.77 in 6.2 mi Variable 2.3 mph - N/A   Unknown